Temperature
11 10 9 10 11 11 11 11 11 12 13 12 11 11 12 12 12 12 11 10 10 10 10 10 10 10 10 10 10 11 11 11 11 11 11 11 11 11 11 11 11 11 11 11
11 10 11 12 12 11 12 11 11 12 12 12 12 12 12 12 12 12 11 11 10 10 10 9 9 10 10 10 10 10 10 11 11 10 10 10 10 10 10 10 10 10 10 10
11 11 12 12 11 11 12 11 10 11 11 12 12 11 12 12 12 12 11 11 11 10 10 10 9 9 10 10 10 10 10 10 10 10 10 10 10 10 10 10 10 10 10 10
11 11 11 11 11 11 11 11 11 11 10 10 12 10 12 12 11 12 12 11 11 11 10 10 9 9 10 10 10 10 10 10 10 10 10 10 10 10 10 10 10 10 9 9
11 11 10 10 10 10 10 11 11 11 10 10 11 11 11 12 11 11 11 11 11 11 10 10 10 9 10 10 10 10 10 10 10 10 9 9 9 9 9 9 9 9 9 9
11 11 11 10 10 11 11 11 11 11 10 10 11 10 11 11 11 12 12 12 11 11 10 10 9 9 9 9 9 9 9 9 9 9 9 9 9 9 9 9 9 9 9 9
11 11 11 10 10 10 11 10 9 9 9 10 11 10 10 12 12 12 12 12 11 11 10 10 9 9 9 9 9 9 9 9 9 9 9 9 9 9 9 9 8 8 8 8
10 10 11 10 10 9 10 10 9 9 9 10 10 10 10 12 12 12 12 11 11 10 10 9 9 9 9 9 9 9 9 9 9 9 9 9 9 9 9 8 8 8 8 8
10 9 11 11 10 10 10 10 11 9 10 10 10 11 11 12 11 11 11 11 11 10 10 9 9 9 9 9 9 9 9 9 9 9 8 8 8 8 8 8 8 8 8 8
10 9 11 11 10 10 10 10 9 9 9 10 11 11 10 10 10 10 11 11 11 10 10 9 9 9 9 9 9 9 9 9 9 8 8 8 8 8 8 8 7 7 7 7
10 9 10 10 10 10 10 10 10 10 10 9 10 10 11 11 11 10 11 11 11 10 10 9 9 9 9 9 9 9 9 8 8 8 8 8 8 8 8 7 7 7 7 7
10 9 8 10 10 10 10 10 10 9 9 10 9 9 12 11 11 11 11 11 10 10 10 9 9 9 9 9 9 9 8 8 8 8 8 8 7 7 7 7 7 7 7 7
9 8 8 9 9 9 9 10 10 10 8 8 8 9 11 11 11 11 11 10 10 10 9 9 9 8 8 8 8 8 8 8 8 8 8 7 7 7 7 7 7 7 6 6
8 8 8 8 9 9 9 9 9 8 7 8 9 9 10 10 10 10 10 10 10 9 9 9 8 8 8 8 8 8 8 8 8 8 7 7 7 7 7 6 6 6 6 6
8 7 8 8 9 9 8 8 9 8 8 8 9 10 10 10 10 10 10 10 9 9 9 8 8 8 8 8 7 7 7 7 7 7 7 7 6 6 6 6 6 6 6 6
8 7 7 7 8 8 7 8 8 8 9 9 9 9 10 11 11 10 10 9 9 9 8 8 8 7 7 7 7 7 7 7 7 7 6 6 6 6 6 6 5 5 5 5
7 7 6 6 8 8 7 9 8 8 8 9 8 9 10 9 9 9 9 9 9 8 8 7 7 7 7 7 7 7 7 6 6 6 6 6 6 5 5 5 5 5 5 5
7 6 6 6 7 6 9 10 10 9 9 9 9 9 9 9 9 9 9 8 8 8 7 7 7 7 7 6 6 6 6 6 6 5 5 5 5 5 5 5 4 4 4 4
6 6 6 5 6 7 9 9 9 8 8 9 9 9 9 9 8 8 8 8 8 7 7 7 7 6 6 6 6 6 5 5 5 5 5 5 5 4 4 4 4 4 4 4
5 6 5 5 6 7 9 8 8 8 7 8 9 8 8 7 5 6 8 7 7 7 7 6 6 6 6 6 5 5 5 5 5 4 4 4 4 4 4 4 4 4 3 3
4 4 4 4 5 7 8 7 7 7 8 8 8 8 8 7 6 7 7 7 6 6 6 6 6 6 5 5 5 5 5 4 4 4 4 4 4 3 3 3 3 3 3 3
4 4 4 5 5 6 7 6 6 7 8 8 7 7 7 7 7 6 6 6 6 6 6 5 5 5 5 5 4 4 4 4 4 4 4 3 3 3 3 3 3 3 2 2
6 6 6 6 6 8 8 7 8 8 7 7 7 7 6 6 6 6 5 5 5 5 5 5 4 4 4 4 4 4 4 3 3 3 3 3 3 3 3 2 2 2 2 2
6 6 6 5 6 8 8 8 7 7 7 6 6 6 6 5 5 5 5 5 5 4 4 4 4 4 4 4 4 3 3 3 3 3 3 3 2 2 2 2 2 2 2 1
6 5 4 4 6 7 7 7 7 7 6 6 6 5 5 5 5 4 4 4 4 4 4 4 3 3 3 3 3 3 3 2 2 2 2 2 2 2 2 2 1 1 1 1
5 5 4 5 6 6 6 7 6 6 6 5 5 5 4 4 4 4 4 4 3 3 3 3 3 3 3 2 2 2 2 2 2 2 2 1 1 1 1 1 1 1 1 0
Wind_Speed
2 1 3 4 4 6 6 4 4 2 0 3 4 4 3 3 3 5 6 6 7 6 6 7 7 7 7 7 7 6 6 5 4 3 3 3 3 3 3 4 6 6 6 6
1 2 4 5 5 6 5 4 4 2 2 2 2 2 3 4 4 5 6 7 7 7 7 7 6 6 6 6 6 5 5 5 4 3 2 2 3 2 3 3 4 5 5 5
2 3 6 6 4 6 3 2 4 4 3 3 2 2 4 5 4 4 4 6 7 8 8 7 6 6 6 5 5 5 5 5 5 4 3 3 2 1 2 2 2 2 2 3
2 3 5 5 4 5 3 4 4 4 3 2 1 1 3 6 5 5 5 6 7 7 8 7 7 6 6 6 5 5 5 5 4 4 3 2 2 1 1 2 2 2 2 2
2 3 5 5 5 5 4 5 5 4 3 2 2 1 2 6 5 6 6 6 6 7 8 8 7 6 6 6 5 4 5 5 4 3 2 2 1 1 1 1 2 2 2 1
2 1 2 3 5 4 6 5 5 3 1 2 1 1 1 2 4 6 7 6 7 7 8 8 7 7 5 6 5 5 5 4 4 3 3 2 3 2 2 2 2 2 2 1
1 3 2 1 4 2 4 3 2 2 0 2 1 1 2 1 3 5 6 6 6 6 6 7 8 7 6 6 6 5 5 5 4 4 3 3 3 3 3 2 2 2 1 2
4 3 1 1 2 3 4 2 1 1 2 1 1 2 2 4 5 5 6 7 7 6 6 6 7 7 7 7 6 6 5 5 5 4 4 3 3 2 2 2 2 2 2 2
4 3 1 1 1 3 4 1 1 1 3 2 2 3 2 4 5 4 5 7 7 6 6 6 6 6 6 6 6 6 5 4 4 4 4 4 3 3 3 2 2 2 2 2
4 5 2 1 2 3 3 4 2 1 2 3 3 2 3 4 5 5 5 5 6 6 6 6 5 5 5 5 5 5 5 4 4 4 4 3 4 4 3 3 3 3 3 2
3 3 3 2 1 1 1 2 2 2 1 1 2 2 1 4 4 5 5 5 6 5 5 5 5 5 5 5 5 4 4 4 3 3 3 3 4 4 4 4 4 4 3 3
2 3 4 3 3 1 2 2 1 1 3 2 2 4 1 4 4 4 4 4 5 5 5 5 5 5 5 5 5 5 5 4 4 3 3 3 3 3 4 4 4 4 4 4
4 3 4 2 0 1 3 2 3 3 2 3 2 4 2 3 3 3 3 3 4 4 4 4 4 5 5 5 5 5 5 4 4 3 3 3 3 4 4 4 4 4 4 4
2 4 5 5 3 2 4 4 4 3 3 4 6 6 4 3 2 2 3 3 3 4 4 3 3 4 5 5 4 4 4 3 3 3 3 3 4 4 4 3 3 4 3 4
2 4 6 9 8 7 9 9 8 9 9 7 7 6 6 3 2 2 3 3 3 3 4 4 3 3 3 3 3 3 3 3 3 3 3 4 3 3 3 3 3 3 3 4
3 4 5 7 7 8 11 12 12 11 11 12 11 11 7 2 2 2 2 2 3 3 3 3 3 3 3 3 3 3 3 3 3 3 4 3 3 3 3 3 3 3 4 4
3 3 3 5 4 7 9 8 10 7 7 7 9 7 2 1 1 1 2 2 3 3 2 2 3 3 3 3 3 3 3 3 3 4 4 4 3 3 3 3 3 4 4 4
4 4 3 5 5 7 6 1 1 6 7 8 6 4 2 2 2 1 2 3 3 2 2 2 2 2 2 2 2 2 2 3 4 4 4 4 3 4 3 3 4 4 3 4
5 4 3 3 5 9 5 2 2 3 5 5 5 4 2 1 2 2 1 2 2 1 1 1 1 1 1 2 3 2 3 3 4 4 4 4 4 4 4 4 5 4 3 4
3 4 4 4 5 6 2 2 2 1 4 1 2 2 1 1 1 2 0 1 1 0 1 0 0 0 1 2 2 3 3 4 5 4 4 3 3 4 5 5 4 3 3 4
3 4 7 8 7 8 2 4 4 2 3 1 1 0 1 2 3 2 1 1 0 1 1 1 1 2 3 2 2 4 4 5 4 3 3 3 4 4 5 4 3 3 3 4
8 7 7 6 8 8 4 5 4 3 1 1 1 1 1 2 3 3 2 2 1 2 2 2 2 3 3 3 3 5 6 5 3 3 3 4 4 4 3 4 4 4 4 4
7 7 5 8 8 2 5 4 2 1 2 2 2 2 2 3 4 4 4 3 3 3 3 3 3 4 4 4 5 6 6 4 3 4 5 5 4 4 4 4 4 4 4 4
6 3 4 6 7 5 5 4 4 3 4 4 4 3 3 5 5 5 4 4 4 4 3 3 3 4 5 5 5 6 4 4 4 5 5 4 4 4 4 4 4 4 4 4
5 4 5 9 8 7 7 6 6 5 5 5 5 5 5 5 6 5 4 4 4 4 4 3 4 5 6 5 4 4 4 4 5 5 5 4 4 4 4 4 4 5 5 5
8 8 8 10 7 6 7 4 4 6 6 6 6 6 5 5 6 6 5 5 4 4 4 4 5 5 5 5 5 5 4 5 5 5 5 4 4 4 4 4 4 6 6 7
Wind_Direction
201 322 342 325 302 281 288 299 302 295 252 220 210 218 191 170 164 151 140 140 136 130 123 117 116 116 112 109 108 112 112 107 108 107 103 101 94 85 75 71 64 52 41 31
240 339 325 300 298 290 288 305 316 326 323 259 224 193 165 161 162 149 147 147 144 134 128 125 124 125 120 118 116 117 117 111 102 102 104 104 107 104 104 90 73 58 48 32
343 343 330 315 326 322 306 312 310 315 303 237 219 180 172 149 136 139 152 146 143 146 145 142 142 135 129 126 127 129 119 113 106 98 97 94 88 89 96 106 99 72 67 54
348 1 333 330 351 336 313 352 324 308 315 287 228 205 190 154 153 163 166 151 147 145 144 145 145 142 140 136 133 131 121 113 110 110 115 120 130 141 153 147 147 139 114 87
343 3 341 340 342 331 301 309 290 275 288 303 273 230 222 154 165 177 167 157 149 147 145 144 146 146 140 136 138 132 121 116 117 126 140 145 136 138 136 148 153 153 144 145
216 136 347 330 315 298 292 283 262 241 276 301 253 198 262 170 180 169 162 158 150 147 143 143 143 139 136 137 139 138 137 140 149 162 169 170 163 160 165 184 173 181 179 180
294 165 143 299 312 302 308 341 8 8 279 251 166 171 246 107 112 139 150 149 141 141 142 147 151 150 150 151 151 157 157 159 166 174 182 184 187 188 194 200 191 198 193 193
325 306 115 29 351 320 306 334 27 328 304 300 170 214 227 112 96 99 126 138 139 145 151 155 158 157 158 161 162 167 171 172 176 181 188 191 196 198 207 213 205 210 211 202
333 303 87 108 299 310 324 351 301 289 290 273 234 173 127 117 118 128 136 139 147 151 149 154 154 154 156 162 169 170 172 174 178 186 189 195 201 206 212 222 223 224 220 206
315 296 274 168 242 230 275 307 323 323 340 315 283 210 190 167 168 162 159 153 149 147 149 151 152 157 159 162 164 163 170 180 180 186 194 198 206 210 211 216 221 222 221 211
299 286 282 239 235 302 311 313 309 296 254 268 304 284 125 145 151 157 162 155 149 152 153 154 156 159 158 155 157 162 172 178 181 191 202 204 211 206 211 222 223 221 223 219
340 292 274 244 119 80 292 309 324 329 303 268 258 267 109 113 115 135 143 141 147 150 151 154 158 158 161 165 167 174 180 183 185 188 204 213 211 204 216 226 225 218 222 223
334 288 305 296 116 204 256 253 268 295 308 266 245 248 152 125 127 144 158 159 152 156 158 159 163 166 169 172 174 177 180 183 181 181 198 211 212 216 224 227 226 222 223 225
311 266 240 255 285 311 268 252 234 223 223 255 238 242 233 205 181 181 176 172 169 166 166 176 181 178 171 171 174 174 176 175 178 185 202 213 221 224 227 230 230 228 226 226
251 268 274 276 281 277 269 261 244 229 227 237 259 268 260 243 202 203 182 182 182 182 182 186 188 186 177 175 175 172 177 176 177 189 207 219 228 229 229 231 232 233 233 234
239 272 297 284 259 261 267 256 245 244 241 247 263 274 268 241 197 206 194 191 199 206 195 185 186 192 195 189 181 178 184 180 178 200 214 218 224 228 228 230 232 233 237 238
225 253 286 279 284 296 271 247 222 222 220 220 239 252 268 263 243 215 203 211 217 219 201 197 197 199 201 193 186 193 192 183 195 213 218 213 215 221 228 231 232 236 237 237
236 237 250 284 312 258 248 63 213 224 238 230 245 273 279 277 296 261 230 229 234 233 220 197 192 205 205 186 184 188 188 196 210 220 220 211 210 222 226 229 236 240 240 240
224 220 237 254 269 273 260 221 189 216 268 233 236 258 286 354 351 285 222 165 202 214 219 218 196 206 210 202 195 188 203 210 219 225 224 217 213 225 229 231 237 239 238 245
252 239 235 234 248 257 257 123 84 74 272 254 187 239 241 100 254 256 45 147 222 162 134 174 182 238 231 227 189 197 219 221 229 227 222 218 220 229 233 235 239 241 238 241
181 212 221 232 245 263 223 139 119 173 249 62 80 224 205 207 229 273 351 330 223 244 222 216 217 227 232 219 194 222 232 232 230 221 222 228 229 230 234 237 237 241 242 245
189 194 204 206 225 250 155 142 187 235 55 46 353 307 276 274 302 315 307 287 271 265 239 222 221 237 236 213 207 229 235 230 216 216 228 234 234 233 230 229 239 240 236 243
205 202 205 209 225 261 174 207 225 353 306 299 285 282 266 267 268 267 264 256 252 253 243 224 225 242 240 219 211 230 237 217 209 221 232 236 234 231 223 219 228 236 234 237
231 218 247 263 259 252 240 248 247 247 255 270 263 264 261 259 261 259 255 254 254 252 246 233 234 245 250 236 225 232 232 208 211 228 236 235 231 235 232 225 219 225 232 238
244 201 241 259 270 283 263 252 256 266 269 272 263 253 249 253 263 259 256 256 255 252 247 237 237 244 253 250 240 237 226 210 222 230 234 237 233 232 234 235 231 233 236 234
232 227 231 252 253 253 268 276 273 263 257 254 256 258 253 246 256 257 253 250 249 249 250 249 246 250 256 253 248 241 226 216 224 233 232 231 231 231 231 238 262 258 248 258
Height
1502 1504 1504 1501 1498 1497 1493 1492 1492 1488 1485 1486 1486 1486 1485 1485 1486 1488 1489 1491 1492 1494 1496 1497 1499 1502 1503 1506 1507 1509 1511 1513 1515 1516 1517 1519 1520 1521 1522 1523 1524 1524 1525 1525
1502 1504 1501 1498 1496 1494 1492 1493 1492 1488 1485 1485 1485 1484 1484 1484 1486 1487 1489 1491 1493 1494 1496 1498 1500 1502 1503 1505 1507 1509 1511 1512 1514 1516 1517 1519 1520 1521 1522 1522 1523 1524 1524 1524
1503 1503 1499 1496 1495 1494 1492 1494 1493 1492 1486 1483 1484 1486 1484 1484 1485 1487 1489 1491 1492 1494 1496 1498 1500 1502 1503 1505 1507 1509 1510 1511 1513 1515 1517 1518 1519 1520 1521 1521 1522 1522 1523 1523
1501 1500 1499 1497 1496 1496 1495 1492 1491 1491 1492 1491 1486 1494 1484 1483 1485 1486 1488 1490 1492 1494 1496 1498 1500 1502 1503 1505 1507 1509 1510 1511 1512 1514 1515 1516 1517 1518 1519 1520 1521 1521 1521 1522
1502 1501 1500 1499 1498 1497 1496 1492 1491 1490 1491 1491 1487 1491 1487 1481 1485 1486 1487 1489 1491 1493 1495 1497 1499 1501 1503 1504 1506 1507 1508 1510 1512 1513 1514 1515 1516 1517 1519 1519 1519 1519 1520 1520
1501 1501 1501 1501 1498 1496 1493 1491 1488 1489 1493 1497 1489 1492 1490 1484 1483 1483 1486 1488 1490 1493 1495 1497 1499 1501 1502 1504 1505 1506 1508 1509 1511 1513 1514 1515 1516 1516 1517 1517 1517 1518 1518 1518
1501 1500 1500 1500 1499 1496 1495 1498 1500 1499 1500 1497 1488 1491 1491 1481 1479 1481 1484 1487 1489 1492 1494 1496 1498 1499 1501 1503 1504 1506 1507 1509 1510 1512 1512 1513 1514 1515 1515 1515 1515 1516 1516 1516
1507 1507 1501 1500 1501 1501 1496 1497 1507 1508 1503 1497 1491 1494 1488 1480 1480 1481 1483 1486 1489 1492 1494 1495 1497 1498 1499 1501 1503 1505 1506 1508 1509 1510 1511 1512 1512 1513 1513 1513 1513 1514 1514 1514
1509 1507 1501 1500 1500 1500 1498 1498 1497 1502 1498 1499 1491 1485 1483 1480 1482 1483 1485 1487 1489 1490 1492 1494 1495 1497 1498 1500 1502 1503 1505 1506 1507 1508 1509 1509 1510 1510 1511 1511 1511 1511 1511 1511
1508 1509 1501 1499 1500 1499 1499 1498 1499 1502 1502 1501 1489 1486 1488 1484 1483 1483 1484 1486 1488 1489 1491 1492 1494 1495 1497 1498 1500 1502 1503 1504 1505 1505 1506 1507 1507 1508 1508 1508 1508 1508 1508 1508
1507 1510 1505 1500 1501 1500 1501 1499 1498 1498 1498 1503 1500 1495 1479 1480 1480 1482 1483 1485 1487 1488 1490 1491 1492 1494 1495 1497 1498 1499 1501 1501 1502 1503 1503 1504 1504 1504 1505 1505 1505 1505 1505 1505
1508 1510 1508 1499 1497 1498 1498 1498 1499 1506 1502 1497 1501 1499 1478 1478 1479 1481 1483 1484 1486 1487 1489 1490 1491 1492 1494 1495 1496 1497 1498 1499 1499 1500 1500 1501 1501 1501 1501 1502 1502 1502 1501 1501
1510 1510 1511 1502 1504 1502 1499 1497 1497 1499 1502 1503 1502 1496 1480 1479 1480 1481 1482 1484 1485 1486 1488 1489 1490 1491 1492 1493 1494 1494 1495 1496 1496 1497 1497 1497 1497 1497 1497 1498 1498 1498 1497 1497
1511 1510 1510 1508 1501 1500 1499 1497 1496 1500 1507 1502 1493 1488 1482 1480 1481 1481 1482 1483 1484 1485 1486 1487 1488 1489 1490 1490 1491 1492 1492 1493 1493 1493 1493 1493 1493 1494 1494 1494 1494 1493 1493 1493
1510 1511 1504 1501 1497 1497 1496 1495 1494 1495 1495 1496 1487 1483 1479 1478 1479 1479 1480 1481 1482 1483 1484 1485 1485 1486 1487 1487 1488 1488 1489 1489 1489 1489 1490 1490 1490 1490 1490 1489 1489 1489 1489 1489
1508 1509 1505 1503 1495 1495 1494 1489 1488 1488 1486 1484 1482 1480 1474 1475 1476 1477 1478 1479 1480 1481 1482 1482 1483 1483 1484 1484 1484 1485 1485 1486 1486 1486 1486 1486 1486 1486 1485 1485 1485 1485 1484 1484
1506 1507 1508 1504 1493 1493 1491 1479 1480 1480 1478 1479 1480 1476 1473 1474 1475 1475 1476 1477 1478 1479 1479 1480 1480 1480 1481 1481 1481 1481 1481 1482 1482 1482 1482 1482 1482 1481 1481 1481 1481 1480 1480 1480
1504 1505 1508 1505 1500 1502 1479 1471 1471 1473 1472 1473 1472 1472 1472 1472 1473 1474 1474 1475 1475 1476 1477 1477 1477 1477 1478 1478 1477 1478 1478 1478 1478 1477 1477 1477 1477 1477 1477 1477 1476 1476 1476 1475
1500 1503 1505 1505 1501 1487 1474 1471 1471 1472 1472 1469 1469 1469 1470 1470 1471 1472 1472 1472 1473 1473 1474 1474 1474 1474 1474 1474 1474 1474 1474 1474 1474 1473 1473 1473 1473 1473 1473 1472 1472 1472 1471 1471
1500 1501 1505 1502 1499 1489 1472 1471 1469 1472 1474 1468 1467 1468 1469 1470 1473 1472 1470 1470 1470 1471 1471 1471 1471 1470 1470 1470 1470 1470 1470 1470 1469 1469 1469 1469 1469 1469 1468 1468 1467 1467 1467 1466
1503 1503 1503 1500 1495 1481 1471 1470 1471 1477 1472 1467 1466 1467 1468 1469 1470 1469 1468 1468 1468 1468 1468 1468 1467 1467 1466 1466 1466 1466 1465 1465 1465 1465 1465 1465 1464 1464 1464 1463 1463 1463 1462 1461
1492 1495 1495 1493 1492 1482 1469 1470 1471 1469 1467 1466 1466 1466 1466 1466 1466 1466 1465 1465 1465 1465 1464 1464 1464 1463 1463 1462 1462 1461 1461 1461 1461 1461 1460 1460 1460 1459 1459 1459 1458 1458 1457 1457
1480 1479 1479 1478 1474 1467 1465 1465 1465 1465 1465 1465 1464 1464 1464 1464 1463 1463 1463 1462 1462 1461 1461 1460 1460 1459 1458 1458 1457 1457 1456 1456 1456 1456 1456 1455 1455 1455 1454 1454 1454 1453 1453 1452
1472 1471 1472 1470 1464 1463 1463 1462 1462 1462 1462 1462 1462 1461 1461 1460 1459 1459 1459 1458 1458 1457 1457 1456 1455 1454 1453 1453 1453 1452 1452 1452 1451 1451 1451 1450 1450 1450 1450 1449 1449 1448 1448 1447
1467 1469 1469 1466 1461 1460 1458 1459 1458 1458 1458 1458 1457 1457 1457 1456 1455 1455 1454 1454 1453 1453 1452 1452 1451 1450 1449 1448 1448 1448 1447 1447 1446 1446 1446 1445 1445 1445 1444 1444 1444 1443 1442 1442
1462 1463 1465 1460 1456 1457 1455 1455 1454 1454 1453 1453 1452 1452 1452 1451 1450 1450 1449 1449 1448 1448 1447 1446 1446 1445 1444 1444 1443 1443 1442 1442 1441 1441 1440 1440 1440 1439 1439 1439 1438 1437 1437 1436